TimeCET,TemperatureF,Dew PointF,Humidity,Sea Level PressureIn,VisibilityMPH,Wind Direction,Wind SpeedMPH,Gust SpeedMPH,PrecipitationIn,Events,Conditions,WindDirDegrees,DateUTC
12:00 AM,42.8,39.2,87,30.12,-9999.0,Calm,Calm,-,N/A,,Clear,0,2013-03-20 23:00:00
12:30 AM,42.8,39.2,87,30.12,-9999.0,Calm,Calm,-,N/A,,Clear,0,2013-03-20 23:30:00
1:00 AM,41,39,91,30.08,12,Calm,Calm,,,,,,2013-03-21 00:00:00
1:00 AM,42.8,41.0,93,30.12,-9999.0,Calm,Calm,-,N/A,,Clear,0,2013-03-21 00:00:00
1:30 AM,42.8,41.0,93,30.12,6.2,Calm,Calm,-,N/A,,Partly Cloudy,0,2013-03-21 00:30:00
2:00 AM,42.8,41.0,93,30.12,6.2,Calm,Calm,-,N/A,,Partly Cloudy,0,2013-03-21 01:00:00
2:30 AM,42.8,41.0,93,30.12,6.2,NE,2.3,-,N/A,,Partly Cloudy,40,2013-03-21 01:30:00
3:00 AM,42.8,41.0,93,30.12,6.2,Variable,1.2,-,N/A,,Partly Cloudy,0,2013-03-21 02:00:00
3:30 AM,42.8,41.0,93,30.12,6.2,Calm,Calm,-,N/A,,Partly Cloudy,0,2013-03-21 02:30:00
4:00 AM,41.0,39.2,93,30.12,6.2,NNE,1.2,-,N/A,,Partly Cloudy,30,2013-03-21 03:00:00
4:30 AM,39.2,37.4,93,30.12,6.2,ENE,2.3,-,N/A,,Partly Cloudy,60,2013-03-21 03:30:00
5:00 AM,39.2,39.2,100,30.12,6.2,Calm,Calm,-,N/A,,Partly Cloudy,0,2013-03-21 04:00:00
5:30 AM,39.2,37.4,93,30.12,6.2,NNE,1.2,-,N/A,,Partly Cloudy,20,2013-03-21 04:30:00
6:00 AM,39.2,37.4,93,30.09,6.2,ENE,1.2,-,N/A,,Partly Cloudy,60,2013-03-21 05:00:00
6:30 AM,39.2,37.4,93,30.09,-9999.0,ENE,2.3,-,N/A,,Clear,60,2013-03-21 05:30:00
7:00 AM,37,35,91,30.06,12,Calm,Calm,,,,Clear,,2013-03-21 06:00:00
7:00 AM,39.2,39.2,100,30.09,-9999.0,Calm,Calm,-,N/A,,Clear,0,2013-03-21 06:00:00
7:30 AM,41.0,39.2,93,30.12,-9999.0,Calm,Calm,-,N/A,,Clear,0,2013-03-21 06:30:00
8:00 AM,44.6,42.8,93,30.12,-9999.0,ENE,1.2,-,N/A,,Clear,60,2013-03-21 07:00:00
8:30 AM,48.2,46.4,93,30.09,-9999.0,Calm,Calm,-,N/A,,Clear,0,2013-03-21 07:30:00
9:00 AM,55.4,51.8,88,30.12,6.2,Calm,Calm,-,N/A,,Partly Cloudy,0,2013-03-21 08:00:00
9:30 AM,57.2,51.8,82,30.12,6.2,Calm,Calm,-,N/A,,Partly Cloudy,0,2013-03-21 08:30:00
10:00 AM,57.2,51.8,82,30.12,6.2,SW,3.5,-,N/A,,Scattered Clouds,230,2013-03-21 09:00:00
10:30 AM,59.0,53.6,82,30.12,6.2,SW,8.1,-,N/A,,Scattered Clouds,230,2013-03-21 09:30:00
11:30 AM,60.8,53.6,77,30.12,6.2,SW,10.4,-,N/A,,Scattered Clouds,220,2013-03-21 10:30:00
12:00 PM,60.8,53.6,77,30.12,6.2,SW,10.4,-,N/A,,Scattered Clouds,220,2013-03-21 11:00:00
12:30 PM,60.8,55.4,82,30.09,6.2,SW,10.4,-,N/A,,Scattered Clouds,220,2013-03-21 11:30:00
1:00 PM,61,51,60,30.04,16,SW,10.4,,,,Mostly Cloudy,220,2013-03-21 12:00:00
1:00 PM,60.8,55.4,82,30.09,6.2,SW,10.4,-,N/A,,Scattered Clouds,220,2013-03-21 12:00:00
1:30 PM,59.0,53.6,82,30.09,6.2,SW,11.5,-,N/A,,Scattered Clouds,230,2013-03-21 12:30:00
2:00 PM,59.0,53.6,82,30.06,6.2,SW,11.5,-,N/A,,Scattered Clouds,230,2013-03-21 13:00:00
2:30 PM,59.0,53.6,82,30.06,6.2,WSW,9.2,-,N/A,,Scattered Clouds,240,2013-03-21 13:30:00
3:00 PM,60.8,53.6,77,30.06,6.2,SW,9.2,-,N/A,,Scattered Clouds,220,2013-03-21 14:00:00
3:30 PM,59.0,53.6,82,30.06,6.2,SW,10.4,-,N/A,,Scattered Clouds,220,2013-03-21 14:30:00
4:00 PM,59.0,53.6,82,30.04,6.2,SW,11.5,-,N/A,,Scattered Clouds,220,2013-03-21 15:00:00
4:30 PM,59.0,53.6,82,30.04,6.2,SW,8.1,-,N/A,,Scattered Clouds,220,2013-03-21 15:30:00
5:00 PM,59.0,53.6,82,30.04,6.2,SW,8.1,-,N/A,,Scattered Clouds,220,2013-03-21 16:00:00
5:30 PM,59.0,53.6,82,30.04,6.2,SW,5.8,-,N/A,,Scattered Clouds,220,2013-03-21 16:30:00
6:00 PM,59.0,53.6,82,30.01,6.2,SW,4.6,-,N/A,,Scattered Clouds,220,2013-03-21 17:00:00
6:30 PM,57.2,53.6,88,30.01,6.2,SW,2.3,-,N/A,,Scattered Clouds,220,2013-03-21 17:30:00
7:00 PM,56,51,77,29.97,11,SW,4.6,,,,Partly Cloudy,230,2013-03-21 18:00:00
7:00 PM,57.2,53.6,88,30.01,6.2,SSW,3.5,-,N/A,,Scattered Clouds,210,2013-03-21 18:00:00
7:30 PM,57.2,53.6,88,30.01,6.2,SSW,2.3,-,N/A,,Scattered Clouds,210,2013-03-21 18:30:00
8:00 PM,57.2,53.6,88,30.01,6.2,SW,2.3,-,N/A,,Partly Cloudy,220,2013-03-21 19:00:00
8:30 PM,55.4,53.6,94,30.01,6.2,South,2.3,-,N/A,,Partly Cloudy,170,2013-03-21 19:30:00
9:00 PM,55.4,53.6,94,30.01,6.2,South,2.3,-,N/A,,Partly Cloudy,180,2013-03-21 20:00:00
9:30 PM,53.6,50.0,88,30.01,6.2,SSE,1.2,-,N/A,,Partly Cloudy,150,2013-03-21 20:30:00
10:00 PM,51.8,50.0,94,30.01,6.2,Calm,Calm,-,N/A,,Partly Cloudy,0,2013-03-21 21:00:00
10:30 PM,51.8,50.0,94,29.98,6.2,Calm,Calm,-,N/A,,Partly Cloudy,0,2013-03-21 21:30:00
11:00 PM,50.0,48.2,94,29.98,6.2,NE,1.2,-,N/A,,Partly Cloudy,40,2013-03-21 22:00:00
11:30 PM,48.2,48.2,100,29.98,6.2,NE,1.2,-,N/A,,Partly Cloudy,40,2013-03-21 22:30:00